Regional Weather Roundup
Issued by NWS Charleston, SC

Current Version | Previous Version | Text Only | Print | Product List | Glossary Off
Versions: 1 2 3 4 5 6 7 8 9 10 11 12 13 14 15 16 17 18 19 20 21 22 23 24 25 26 27 28 29 30 31 32 33 34 35 36 37 38 39 40 41 42 43 44 45 46 47 48 49 50

000
ASUS42 KCHS 220512
RWRCHS

Regional Weather Roundup
National Weather Service Charleston SC
1200 AM EST MON JAN 22 2018

NOTE: "fair" indicates few or no clouds below 12,000 feet with no
significant weather and/or obstructions to visibility.

Not all stations are quality controlled. Use data with caution,
especially dewpoint observations.

SCZ027-030-031-034>040-042>050-220600-
...Southeast South Carolina...

CITY           SKY/WX    TMP DP  RH WIND       PRES   REMARKS
N Charleston   FAIR      44  41  89 CALM      30.21F
Waterfront Prk NOT AVBL
Mount Pleasant FAIR      41  39  93 CALM      30.23F FOG
Johns Island   FAIR      43  41  93 CALM      30.22F
Pinopolis        N/A     46  43  87 CALM      30.16R
Moncks Corner  FAIR      41  37  87 CALM      30.21F
Summerville    FAIR      41  37  87 CALM      30.22F
Beaufort MCAS  FAIR      44  40  85 CALM      30.21F
Beaufort Arpt  FAIR      43  41  93 CALM      30.21F
Hilton Head Is FAIR      45  43  93 CALM      30.22F
Walterboro     FAIR      41  37  87 CALM      30.21F
Allendale      FAIR      46  43  87 CALM      30.20F

...Southern Midlands and Pee Dee...

CITY           SKY/WX    TMP DP  RH WIND       PRES   REMARKS
Georgetown     FAIR      36  36 100 CALM      30.24S
Kingstree      FAIR      37  36  93 CALM      30.23S
Orangeburg     FAIR      42  38  85 CALM      30.21F
Barnwell       NOT AVBL
Aiken          FAIR      41  39  93 CALM      30.23S
Manning        FAIR      41  32  70 MISG      30.21F
Columbia       FAIR      42  39  89 CALM      30.20F
Sumter         FAIR      42  36  79 CALM      30.18F
Florence       FAIR      44  39  82 CALM      30.23S
Myrtle Beach   FAIR      41  38  89 CALM      30.25S
N Myrtle Beach FAIR      39  38  96 CALM      30.23S

$$

GAZ063-065-086>088-099>101-113>116-118-119-134>141-150-220600-
...Southeast Georgia...

CITY           SKY/WX    TMP DP  RH WIND       PRES   REMARKS
Savannah Arpt  FAIR      46  39  76 CALM      30.22F
Hunter AAF     FAIR      44  40  84 CALM      30.19F
Fort Stewart   FAIR      44  39  83 CALM      30.19F
Statesboro     FAIR      44  39  83 CALM      30.21S
Sylvania       FAIR      49  42  78 CALM      30.22S
Claxton        FAIR      42  41  95 CALM      30.21F

...CSRA, Central and far Southeast Georgia...

CITY           SKY/WX    TMP DP  RH WIND       PRES   REMARKS
Thomson        FAIR      42  40  93 CALM      30.25S
Augusta-Bush   FAIR      41  39  93 CALM      30.21R
Augusta-Daniel FAIR      55  43  63 CALM      30.21R
Swainsboro     FAIR      50  43  76 SE5       30.20F HAZE
Vidalia        FAIR      48  43  81 S3        30.20F
Eastman        FAIR      43  36  75 CALM      30.21F
Hazlehurst     FAIR      54  32  43 S5        30.18F
Alma           FAIR      47  38  71 CALM      30.19F
Waycross       FAIR      49  35  60 CALM      30.19F
Jesup          NOT AVBL
Baxley         FAIR      45  36  70 CALM      30.19F
Brunswick      FAIR      45  37  76 CALM      30.21F
Saint Simons   FAIR      54  50  86 E7        30.19F

$$

SCZ027-028-034-036>038-045-046-048>050-GAZ119-141-220600-
...Lake and Supplemental Coastal Observations...

STATION/POSITION TIME  TEMP    WIND        PRES    WAVE   SWELL
                       AIR SEA DIR/SP/G            HT/PER HT/PER/DIR
                 (UTC) (F)     (DEG/KT/KT) (MB)    (FT/S) (FT/S/D)
Winyah Bay       0345   43     320/  2     1024.0
Lake Murray      0420   49      CALM  /  2 1022.4
ACE Basin NERRS  0345   42        CALM     1024.0
Fort Pulaski     0448   47 46     CALM     1023.2F
Sapelo Island    0400   45      40/  1     1023.0

$$

ANZ835-935-AMZ111-154-330-350-352-354-370-450-454-472-220600-
...C-MAN and Buoy Observations...

STATION/POSITION TIME  TEMP    WIND        PRES    WAVE   SWELL
                       AIR SEA DIR/SP/G            HT/PER HT/PER/DIR
                 (UTC) (F)     (DEG/KT/KT) (MB)    (FT/S) (FT/S/D)
Buoy 41004       0450   65 70  190/  6/  8 1022.9F   1/ 9   2/130/ 9
Buoy 41008       0450   57 51  120/  4/  4 1022.6F   1/11   2/110/11
Folly Beach CMAN 0400   49     330/  3/  3 1024.1R
Capers Nearshore 0408   46 50  360/  2/  4 1023.2S
Fripp Nearshore  0408   47 48  310/  2/  4 1022.7F


STATION/POSITION TIME  TEMP    WIND        PRES    WAVE   SWELL
                       AIR SEA DIR/SP/G            HT/PER HT/PER/DIR
                 (UTC) (F)     (DEG/KT/KT) (MB)    (FT/S) (FT/S/D)
5E St. Marys GA  0430      50                N/A     1/11
Frying Pan Buoy  0450   61 65  310/  2/  2 1023.0F   1/10   2/120/10
Buoy 41025       0500   60      40/  2/  4 1023.6
Cape Lookout NC  0400           60/  1/  1 1024.0F
Buoy 41002       0450   65 70   10/  4/  4 1024.3F   3/10   2/110/10
Buoy 41010       NOT AVBL
St Augustine FL  0500   57 53  340/  4/  4 1022.1F


$$



USA.gov is the U.S. government's official web portal to all federal, state and local government web resources and services.